Regional Weather Roundup
Issued by NWS Charleston, WV

Home | Current Version | Previous Version | Text Only | Print | Product List | Glossary Off
Versions: 1 2 3 4 5 6 7 8 9 10 11 12 13 14 15 16 17 18 19 20 21 22 23 24 25 26 27 28 29 30 31 32 33 34 35 36 37 38 39 40 41 42 43 44 45 46 47 48 49 50

000
ASUS41 KRLX 201510
RWRRLX
West Virginia Regional Weather Roundup
National Weather Service Charleston WV
1100 AM EDT SUN MAY 20 2018

Note: "fair" indicates few or no clouds below 12,000 feet with no
significant weather and/or obstructions to visibility.

WVZ003-201600-
Northern Panhandle of West Virginia

CITY           SKY/WX    TMP DP  RH WIND       PRES   REMARKS
WHEELING       FAIR      72  63  73 VRB5      30.07S
$$

WVZ009-201600-
Northwest West Virginia

CITY           SKY/WX    TMP DP  RH WIND       PRES   REMARKS
PARKERSBURG    CLOUDY    72  66  81 VRB7      30.12R HAZE
$$

WVZ006-201600-
Western West Virginia

CITY           SKY/WX    TMP DP  RH WIND       PRES   REMARKS
HUNTINGTON     FAIR      77  68  73 VRB3      30.11R
$$

WVZ015-201600-
West Central West Virginia

CITY           SKY/WX    TMP DP  RH WIND       PRES   REMARKS
CHARLESTON     FAIR      77  68  73 W3        30.11S
$$

WVZ022-031-201600-
North Central West Virginia

CITY           SKY/WX    TMP DP  RH WIND       PRES   REMARKS
CLARKSBURG     CLOUDY    73  65  75 SW8       30.10S
MORGANTOWN     PTSUNNY   72  66  81 SW7       30.09S
$$

WVZ025-035-042-045-201600-
Southern West Virginia

CITY           SKY/WX    TMP DP  RH WIND       PRES   REMARKS
BECKLEY        CLOUDY    72  63  73 W8        30.19F
LOGAN          PTSUNNY   75  68  78 CALM      30.16R
BLUEFIELD      FAIR      71  62  73 W7        30.22S
LEWISBURG      FAIR      72  64  74 W8        30.19S
$$

WVZ047-201600-
Northern Mountains of West Virginia

CITY           SKY/WX    TMP DP  RH WIND       PRES   REMARKS
ELKINS         PTSUNNY   72  62  71 W8        30.14R
$$

WVZ052-201600-
Eastern Panhandle of West Virginia

CITY           SKY/WX    TMP DP  RH WIND       PRES   REMARKS
MARTINSBURG    FAIR      79  67  66 SW12      30.02F
PETERSBURG     CLOUDY    76  67  73 E3        30.06F
$$



USA.gov is the U.S. government's official web portal to all federal, state and local government web resources and services.